TimeCST,TemperatureF,Dew PointF,Humidity,Sea Level PressureIn,VisibilityMPH,Wind Direction,Wind SpeedMPH,Gust SpeedMPH,PrecipitationIn,Events,Conditions,WindDirDegrees,DateUTC
12:15 AM,30.2,26.6,86,30.12,10.0,Calm,Calm,-,N/A,,Clear,0,2013-02-04 06:15:00
12:35 AM,28.4,26.6,93,30.12,10.0,Calm,Calm,-,N/A,,Clear,0,2013-02-04 06:35:00
12:55 AM,28.4,26.6,93,30.11,10.0,Calm,Calm,-,N/A,,Clear,0,2013-02-04 06:55:00
1:15 AM,28.4,26.6,93,30.10,10.0,Calm,Calm,-,N/A,,Clear,0,2013-02-04 07:15:00
1:35 AM,28.4,26.6,93,30.10,10.0,Calm,Calm,-,N/A,,Clear,0,2013-02-04 07:35:00
1:55 AM,28.4,26.6,93,30.09,10.0,Calm,Calm,-,N/A,,Clear,0,2013-02-04 07:55:00
2:15 AM,26.6,23.0,86,30.09,10.0,Calm,Calm,-,N/A,,Clear,0,2013-02-04 08:15:00
2:35 AM,28.4,26.6,93,30.09,10.0,Calm,Calm,-,N/A,,Clear,0,2013-02-04 08:35:00
2:55 AM,28.4,26.6,93,30.09,10.0,Calm,Calm,-,N/A,,Clear,0,2013-02-04 08:55:00
3:15 AM,28.4,26.6,93,30.09,10.0,Calm,Calm,-,N/A,,Clear,0,2013-02-04 09:15:00
5:15 AM,28.4,26.6,93,30.10,10.0,Calm,Calm,-,N/A,,Clear,0,2013-02-04 11:15:00
5:35 AM,28.4,26.6,93,30.10,10.0,Calm,Calm,-,N/A,,Clear,0,2013-02-04 11:35:00
6:15 AM,30.2,26.6,86,30.11,10.0,Calm,Calm,-,N/A,,Clear,0,2013-02-04 12:15:00
6:35 AM,28.4,26.6,93,30.10,10.0,Calm,Calm,-,N/A,,Clear,0,2013-02-04 12:35:00
6:55 AM,28.4,26.6,93,30.11,10.0,Calm,Calm,-,N/A,,Clear,0,2013-02-04 12:55:00
7:15 AM,30.2,26.6,86,30.11,10.0,Calm,Calm,-,N/A,,Clear,0,2013-02-04 13:15:00
7:35 AM,30.2,28.4,93,30.11,7.0,Calm,Calm,-,N/A,,Clear,0,2013-02-04 13:35:00
7:55 AM,30.2,28.4,93,30.13,10.0,Calm,Calm,-,N/A,,Clear,0,2013-02-04 13:55:00
8:15 AM,32.0,28.4,87,30.12,10.0,Calm,Calm,-,N/A,,Clear,0,2013-02-04 14:15:00
8:35 AM,32.0,28.4,87,30.12,10.0,Calm,Calm,-,N/A,,Clear,0,2013-02-04 14:35:00
8:55 AM,32.0,28.4,87,30.11,10.0,Calm,Calm,-,N/A,,Scattered Clouds,0,2013-02-04 14:55:00
9:15 AM,32.0,28.4,87,30.13,10.0,Calm,Calm,-,N/A,,Scattered Clouds,0,2013-02-04 15:15:00
9:35 AM,33.8,28.4,81,30.13,10.0,Calm,Calm,-,N/A,,Clear,0,2013-02-04 15:35:00
9:55 AM,33.8,28.4,81,30.12,10.0,Calm,Calm,-,N/A,,Scattered Clouds,0,2013-02-04 15:55:00
10:15 AM,35.6,30.2,81,30.10,10.0,Calm,Calm,-,N/A,,Scattered Clouds,0,2013-02-04 16:15:00
10:35 AM,37.4,30.2,75,30.11,10.0,Calm,Calm,-,N/A,,Clear,0,2013-02-04 16:35:00
10:55 AM,37.4,30.2,75,30.09,10.0,Calm,Calm,-,N/A,,Clear,0,2013-02-04 16:55:00
11:15 AM,41.0,30.2,65,30.09,10.0,Calm,Calm,-,N/A,,Clear,0,2013-02-04 17:15:00
11:35 AM,41.0,30.2,65,30.08,10.0,Calm,Calm,-,N/A,,Clear,0,2013-02-04 17:35:00
11:55 AM,42.8,30.2,61,30.08,10.0,WSW,3.5,-,N/A,,Clear,240,2013-02-04 17:55:00
12:15 PM,44.6,30.2,57,30.07,10.0,Calm,Calm,-,N/A,,Clear,0,2013-02-04 18:15:00
12:35 PM,44.6,30.2,57,30.05,10.0,Calm,Calm,-,N/A,,Scattered Clouds,0,2013-02-04 18:35:00
12:55 PM,44.6,28.4,53,30.04,10.0,Calm,Calm,-,N/A,,Scattered Clouds,0,2013-02-04 18:55:00
1:15 PM,46.4,28.4,50,30.02,10.0,Calm,Calm,-,N/A,,Scattered Clouds,0,2013-02-04 19:15:00
1:35 PM,46.4,26.6,46,30.02,10.0,Calm,Calm,-,N/A,,Clear,0,2013-02-04 19:35:00
1:55 PM,48.2,28.4,46,30.02,10.0,WSW,3.5,-,N/A,,Clear,250,2013-02-04 19:55:00
2:15 PM,46.4,24.8,43,30.01,10.0,Calm,Calm,-,N/A,,Clear,0,2013-02-04 20:15:00
2:35 PM,48.2,23.0,37,30.00,10.0,Calm,Calm,-,N/A,,Clear,0,2013-02-04 20:35:00
2:55 PM,50.0,21.2,32,30.01,10.0,SW,8.1,-,N/A,,Clear,220,2013-02-04 20:55:00
3:15 PM,50.0,23.0,35,30.00,10.0,WSW,3.5,-,N/A,,Clear,240,2013-02-04 21:15:00
3:35 PM,50.0,21.2,32,30.00,10.0,Calm,Calm,-,N/A,,Clear,0,2013-02-04 21:35:00
3:55 PM,48.2,23.0,37,30.00,10.0,Calm,Calm,-,N/A,,Clear,0,2013-02-04 21:55:00
4:15 PM,48.2,26.6,43,29.99,10.0,Calm,Calm,-,N/A,,Clear,0,2013-02-04 22:15:00
4:35 PM,48.2,23.0,37,29.99,10.0,Calm,Calm,-,N/A,,Scattered Clouds,0,2013-02-04 22:35:00
4:55 PM,46.4,26.6,46,30.00,10.0,Calm,Calm,-,N/A,,Scattered Clouds,0,2013-02-04 22:55:00
5:15 PM,46.4,26.6,46,30.00,10.0,Calm,Calm,-,N/A,,Scattered Clouds,0,2013-02-04 23:15:00
5:35 PM,44.6,26.6,49,30.01,10.0,Calm,Calm,-,N/A,,Scattered Clouds,0,2013-02-04 23:35:00
5:55 PM,44.6,28.4,53,30.01,10.0,Calm,Calm,-,N/A,,Scattered Clouds,0,2013-02-04 23:55:00
6:15 PM,44.6,28.4,53,30.01,10.0,Calm,Calm,-,N/A,,Overcast,0,2013-02-05 00:15:00
6:35 PM,42.8,28.4,57,30.02,10.0,Calm,Calm,-,N/A,,Overcast,0,2013-02-05 00:35:00
6:55 PM,42.8,30.2,61,30.01,10.0,Calm,Calm,-,N/A,,Overcast,0,2013-02-05 00:55:00
7:15 PM,41.0,32.0,70,30.01,10.0,Calm,Calm,-,N/A,,Overcast,0,2013-02-05 01:15:00
7:35 PM,41.0,32.0,70,30.01,10.0,Calm,Calm,-,N/A,,Overcast,0,2013-02-05 01:35:00
7:55 PM,41.0,32.0,70,30.01,10.0,Calm,Calm,-,N/A,,Mostly Cloudy,0,2013-02-05 01:55:00
8:15 PM,41.0,32.0,70,30.01,10.0,Calm,Calm,-,N/A,,Overcast,0,2013-02-05 02:15:00
8:35 PM,41.0,32.0,70,30.01,10.0,Calm,Calm,-,N/A,,Overcast,0,2013-02-05 02:35:00
8:55 PM,41.0,32.0,70,30.01,10.0,Calm,Calm,-,N/A,,Overcast,0,2013-02-05 02:55:00
9:15 PM,41.0,32.0,70,29.99,10.0,Calm,Calm,-,N/A,,Overcast,0,2013-02-05 03:15:00
9:35 PM,39.2,32.0,75,30.00,10.0,Calm,Calm,-,N/A,,Mostly Cloudy,0,2013-02-05 03:35:00
9:55 PM,39.2,32.0,75,29.99,10.0,Calm,Calm,-,N/A,,Scattered Clouds,0,2013-02-05 03:55:00
10:15 PM,37.4,32.0,81,29.99,10.0,Calm,Calm,-,N/A,,Scattered Clouds,0,2013-02-05 04:15:00
10:35 PM,37.4,32.0,81,29.98,10.0,Calm,Calm,-,N/A,,Mostly Cloudy,0,2013-02-05 04:35:00
10:55 PM,35.6,32.0,87,29.97,10.0,Calm,Calm,-,N/A,,Overcast,0,2013-02-05 04:55:00
11:15 PM,37.4,32.0,81,29.97,10.0,Calm,Calm,-,N/A,,Overcast,0,2013-02-05 05:15:00
11:35 PM,37.4,32.0,81,29.97,10.0,Calm,Calm,-,N/A,,Overcast,0,2013-02-05 05:35:00
11:55 PM,35.6,32.0,87,29.97,10.0,Calm,Calm,-,N/A,,Scattered Clouds,0,2013-02-05 05:55:00